This is the latest recevied weather packets stored in our database for station/object WJ4X-13. If no packets are shown the sender has not sent any weather packets the latest 10 day(s).
| Time | Temp. | Humidity | Pressure | Rain* | Wind** | Luminosity | Snow |
|---|---|---|---|---|---|---|---|
| 1777566645 | 17.78° C | 97% | 1012.2 hPa | 1.52 mm | - | - | - |
| 1777561238 | 19.44° C | 89% | 1012.3 hPa | 0 mm | - | - | - |
| 1777560335 | 18.33° C | 95% | 1012 hPa | 0 mm | - | - | - |
| 1777556736 | 17.22° C | 99% | 1010.7 hPa | 0 mm | - | - | - |
| 1777554945 | 16.67° C | 99% | 1010.2 hPa | 0.25 mm | - | - | - |
| 1777551341 | 16.11° C | 99% | 1010.9 hPa | 0 mm | - | - | - |
| 1777550427 | 16.11° C | 98% | 1010.7 hPa | 0.25 mm | - | - | - |
| 1777547725 | 16.11° C | 98% | 1011 hPa | 1.02 mm | - | - | - |
| 1777546827 | 16.11° C | 98% | 1010.7 hPa | 1.78 mm | - | - | - |
| 1777543222 | 16.67° C | 97% | 1011.2 hPa | 8.64 mm | - | - | - |
| 1777533373 | 18.33° C | 95% | 1009.2 hPa | 0 mm | - | - | - |
| 1777527046 | 19.44° C | 92% | 1010.3 hPa | 0 mm | - | - | - |
| 1777522546 | 20° C | 90% | 1011 hPa | 0 mm | - | - | - |
| 1777521639 | 20° C | 89% | 1011 hPa | 0 mm | - | - | - |
| 1777519832 | 20° C | 88% | 1010.9 hPa | 0 mm | - | - | - |
| 1777507229 | 23.33° C | 77% | 1009.6 hPa | 0 mm | - | - | - |
| 1777505423 | 25° C | 69% | 1009.6 hPa | 0 mm | - | - | - |
| 1777498222 | 27.22° C | 67% | 1009.6 hPa | 0 mm | - | - | - |
| 1777495506 | 27.22° C | 68% | 1010.3 hPa | 0 mm | - | - | - |
| 1777485644 | 25° C | 76% | 1012.7 hPa | 0 mm | - | - | - |
| 1777478426 | 21.67° C | 83% | 1014.4 hPa | 0 mm | - | - | - |
| 1777473013 | 19.44° C | 92% | 1014.9 hPa | 0 mm | - | - | - |
| 1777467602 | 16.67° C | 100% | 1015.7 hPa | 0 mm | - | - | - |
| 1777464955 | 16.11° C | 100% | 1015.6 hPa | 0 mm | - | - | - |
| 1777464054 | 16.11° C | 100% | 1015.4 hPa | 0 mm | - | - | - |
* Rain latest hour (hover to see other rain measurements)
** Current wind speed in m/s (hover to see current wind gust speed)